Flag for Norway Weather past 2 weeks in Lillestrøm, Norway

Now
56 °F

Cool.


Feels Like: 56 °F
Forecast: 47 / 66 °F
Wind: 2 mph from Southwest

Location: Oslo-Blindern

Current Time: Aug 2, 2015 at 6:53:02 PM

Latest Report: Aug 2, 2015 at 6:00 PM


Visibility: N/A

Pressure: 29.98 "Hg

Humidity: 79%

Dew point: 49 °F

Location of LillestrømLocation

Historic Weather in Lillestrøm — Graph

°F

Lillestrøm temperature yesterday

Maximum temperature yesterday: 69 °F (at 1:00 PM)
Minimum temperature yesterday: 49 °F (at 3:00 AM)
Average temperature yesterday: 60 °F

Past Weeks' High & Low Weather Summary

 TemperatureHumidityPressure
High74 °F (Jul 20, 2:00 PM)96% (Aug 2, 5:00 AM)29.96 "Hg (Aug 2, 5:00 AM)
Low47 °F (Jul 24, 5:00 AM)37% (Jul 23, 5:00 PM)29.35 "Hg (Jul 26, 1:00 PM)
Average59 °F72%29.64 "Hg
* Reported Jul 18 5:00 PM — Aug 2 5:00 PM, Lillestrøm, Weather by CustomWeather, © 2015

Note: Actual official high and low records may vary slightly from our data, if they occured in-between our weather recording intervals... More about our weather records

Advertising

Lillestrøm weather history for previous 24 hours

 ConditionsComfort  
Time TempWeatherWind HumidityBarometerVisibility
5:00 PM
Sun, Aug 2
64 °FScattered clouds.7 mph50%29.96 "Hg43 mi
4:00 PM66 °FMild.6 mph42%29.95 "HgN/A
3:00 PM66 °FMild.7 mph47%29.95 "HgN/A
2:00 PM67 °FScattered clouds.7 mph44%29.94 "Hg43 mi
1:00 PM63 °FMild.5 mph52%29.95 "HgN/A
12:00 PM63 °FMild.5 mph57%29.94 "HgN/A
11:00 AM62 °FScattered clouds.5 mph68%29.94 "Hg47 mi
10:00 AM59 °FCool.3 mph75%29.93 "HgN/A
9:00 AM53 °FCool.5 mph85%29.93 "HgN/A
8:00 AM54 °FPartly sunny.3 mph90%29.93 "Hg43 mi
7:00 AM49 °FCool.1 mph96%29.93 "HgN/A
6:00 AM50 °FCool.3 mph94%29.93 "HgN/A
5:00 AM53 °FRain. Overcast.3 mph96%29.94 "Hg4 mi
4:00 AM53 °FCool.3 mph93%29.94 "HgN/A
3:00 AM55 °FCool.3 mph88%29.95 "HgN/A
2:00 AM56 °FLight rain. Overcast.3 mph85%29.95 "Hg16 mi
1:00 AM57 °FCool.5 mph83%29.95 "HgN/A
12:00 AM57 °FCool.3 mph74%29.95 "HgN/A
10:00 PM
Sat, Aug 1
58 °FCool.3 mph69%29.94 "HgN/A
9:00 PM59 °FCool.5 mph68%29.94 "HgN/A
8:00 PM62 °FScattered clouds.6 mph67%29.93 "Hg47 mi
6:00 PM65 °FMild.6 mph58%29.92 "HgN/A
Weather by CustomWeather, © 2015

See weather overviewHow to use our weather pages